| time (UTC) | temp F | wind direction | speed knots | gust knots | rain 1hr in | rain 24hr in | rain mn in | humidity % | barometer mb |
| 20260504214605 | 71 | 166 | 1.7 | 0.0 | 0.00 | 0.00 | 0.00 | 46 | 1008.5 |
| 20260504213054 | 72 | 162 | 2.6 | 0.0 | 0.00 | 0.00 | 0.00 | 44 | 1008.6 |
| 20260504211553 | 72 | 194 | 1.7 | 0.0 | 0.00 | 0.00 | 0.00 | 45 | 1008.5 |
| 20260504210055 | 74 | 142 | 2.6 | 0.0 | 0.00 | 0.00 | 0.00 | 43 | 1008.5 |
| 20260504204554 | 76 | 178 | 1.7 | 0.0 | 0.00 | 0.00 | 0.00 | 40 | 1008.3 |
| 20260504203056 | 78 | 164 | 1.7 | 0.0 | 0.00 | 0.00 | 0.00 | 29 | 1008.3 |
| 20260504201550 | 79 | 248 | 0.9 | 0.0 | 0.00 | 0.00 | 0.00 | 31 | 1008.3 |
| 20260504200048 | 78 | 313 | 1.7 | 0.0 | 0.00 | 0.00 | 0.00 | 31 | 1008.5 |
| 20260504194553 | 79 | 319 | 1.7 | 0.0 | 0.00 | 0.00 | 0.00 | 28 | 1008.7 |
| 20260504193046 | 78 | 336 | 0.9 | 0.0 | 0.00 | 0.00 | 0.00 | 29 | 1008.8 |
| 20260504191551 | 78 | 202 | 0.9 | 0.0 | 0.00 | 0.00 | 0.00 | 31 | 1009.0 |
| 20260504190040 | 78 | 195 | 1.7 | 0.0 | 0.00 | 0.00 | 0.00 | 33 | 1009.4 |
| 20260504184539 | 78 | 248 | 1.7 | 0.0 | 0.00 | 0.00 | 0.00 | 31 | 1009.7 |
| 20260504183038 | 78 | 212 | 2.6 | 0.0 | 0.00 | 0.00 | 0.00 | 30 | 1009.8 |
| 20260504181536 | 78 | 224 | 0.9 | 0.0 | 0.00 | 0.00 | 0.00 | 32 | 1009.9 |
| 20260504180034 | 78 | 202 | 1.7 | 0.0 | 0.00 | 0.00 | 0.00 | 33 | 1010.1 |
| 20260504174531 | 78 | 259 | 0.9 | 0.0 | 0.00 | 0.00 | 0.00 | 30 | 1010.3 |
| 20260504173031 | 78 | 180 | 0.9 | 0.0 | 0.00 | 0.00 | 0.00 | 31 | 1010.5 |
| 20260504171542 | 77 | 254 | 0.9 | 0.0 | 0.00 | 0.00 | 0.00 | 31 | 1010.8 |
| 20260504090108 | 46 | 204 | 0.0 | 0.0 | 0.00 | 0.00 | 0.00 | 66 | 1013.8 |
| 20260504081553 | 45 | 246 | 0.0 | 0.0 | 0.00 | 0.00 | 0.00 | 67 | 1013.8 |
| 20260504044534 | 43 | 192 | 0.0 | 0.0 | 0.00 | 0.00 | 0.00 | 67 | 1012.8 |
| 20260504043044 | 43 | 192 | 0.0 | 0.0 | 0.00 | 0.00 | 0.00 | 68 | 1012.8 |
| 20260504041536 | 43 | 192 | 0.0 | 0.0 | 0.00 | 0.00 | 0.00 | 68 | 1012.6 |
| 20260504040028 | 44 | 192 | 0.0 | 0.0 | 0.00 | 0.00 | 0.00 | 67 | 1012.6 |
| 20260504034527 | 44 | 192 | 0.0 | 0.0 | 0.00 | 0.00 | 0.00 | 66 | 1012.5 |
| 20260504033030 | 45 | 192 | 0.0 | 0.0 | 0.00 | 0.00 | 0.00 | 65 | 1012.4 |
| 20260504031526 | 45 | 192 | 0.0 | 0.0 | 0.00 | 0.00 | 0.00 | 64 | 1012.4 |
| 20260504030027 | 46 | 192 | 0.0 | 0.0 | 0.00 | 0.00 | 0.00 | 63 | 1012.3 |
| 20260504024524 | 46 | 192 | 0.0 | 0.0 | 0.00 | 0.00 | 0.00 | 61 | 1012.3 |
| 20260504023027 | 47 | 192 | 0.0 | 0.0 | 0.00 | 0.00 | 0.00 | 61 | 1012.3 |
| 20260504021524 | 48 | 192 | 0.0 | 0.0 | 0.00 | 0.00 | 0.00 | 60 | 1012.3 |
| 20260504020025 | 48 | 191 | 0.0 | 0.0 | 0.00 | 0.00 | 0.00 | 58 | 1012.3 |
| 20260504014533 | 48 | 188 | 0.0 | 0.0 | 0.00 | 0.00 | 0.00 | 57 | 1012.3 |
| 20260504013022 | 49 | 186 | 0.0 | 0.0 | 0.00 | 0.00 | 0.00 | 56 | 1012.1 |
| 20260504011522 | 50 | 186 | 0.0 | 0.0 | 0.00 | 0.00 | 0.00 | 54 | 1011.9 |
| 20260504010017 | 51 | 186 | 0.0 | 0.0 | 0.00 | 0.00 | 0.00 | 54 | 1011.6 |
| 20260504004520 | 52 | 186 | 0.0 | 0.0 | 0.00 | 0.00 | 0.00 | 52 | 1011.4 |
| 20260504003018 | 53 | 186 | 0.0 | 0.0 | 0.00 | 0.00 | 0.00 | 50 | 1011.3 |
| 20260504001517 | 54 | 186 | 0.0 | 0.0 | 0.00 | 0.00 | 0.00 | 47 | 1011.0 |
| 20260504000015 | 55 | 186 | 0.0 | 0.0 | 0.00 | 0.00 | 0.00 | 43 | 1010.9 |
| 20260503234516 | 56 | 186 | 0.0 | 0.0 | 0.00 | 0.00 | 0.00 | 42 | 1010.7 |
| 20260503233015 | 56 | 186 | 0.0 | 0.0 | 0.00 | 0.00 | 0.00 | 41 | 1010.5 |
| 20260503231517 | 57 | 221 | 0.0 | 0.0 | 0.00 | 0.00 | 0.00 | 40 | 1010.6 |
| 20260503230017 | 57 | 319 | 0.0 | 0.0 | 0.00 | 0.00 | 0.00 | 41 | 1010.5 |
| 20260503224516 | 58 | 287 | 0.0 | 0.0 | 0.00 | 0.00 | 0.00 | 39 | 1010.4 |
| 20260503223015 | 59 | 194 | 0.0 | 0.0 | 0.00 | 0.00 | 0.00 | 40 | 1010.4 |
| 20260503221513 | 59 | 291 | 1.7 | 0.0 | 0.00 | 0.00 | 0.00 | 35 | 1010.2 |
| 20260503220011 | 59 | 279 | 2.6 | 0.0 | 0.00 | 0.00 | 0.00 | 34 | 1010.3 |